Hourly Data Report for June 06, 2021

WINNIPEG THE FORKS
MANITOBA
Current Station Operator: ECCC - MSC

49°53'18.008" N
97°07'46.007" W
230.00 m
5023262
71579
XWN

Download Data

Hourly Data (June 2021)
Hourly Data Report for June 6, 2021
TIME
LST
Temp Definition
°C
Dew Point Definition
°C
Rel Hum Definition
%
Precip. Amount Definition
mm

Wind Dir Definition
10's deg

Wind Spd Definition
km/h
Visibility Definition
km
Stn Press Definition
kPa
Hmdx Definition


Wind Chill Definition


Weather Definition


00:00 23.2 15.3 61 0.0 12 3   96.75 27   LegendNANA
01:00 22.9 15.6 64 0.0 4 2   96.75 27   LegendNANA
02:00 23.0 16.6 67 0.0 8 3   96.75 28   LegendNANA
03:00 21.2 17.6 80 0.8 22 3   96.73 27   LegendNANA
04:00 21.7 16.5 72 2.1 23 11   97.10 27   LegendNANA
05:00 19.1 13.7 71 1.0 31 10   96.90     LegendNANA
06:00 18.3 14.3 77 0.2 6 8   96.62     LegendNANA
07:00 19.1 14.1 73 0.0 6 6   96.88     LegendNANA
08:00 20.3 15.1 72 0.0 24 1   96.89     LegendNANA
09:00 22.6 15.5 64 0.0 21 4   96.88 27   LegendNANA
10:00 23.1 15.4 62 0.0 29 9   97.01 27   LegendNANA
11:00 23.8 14.9 57 0.0 23 7   96.98 28   LegendNANA
12:00 21.6 12.2 55 0.0 25 7   97.10     LegendNANA
13:00 22.8 10.5 46 0.0 24 8   97.08     LegendNANA
14:00 24.2 11.0 43 0.0 24 9   97.06 26   LegendNANA
15:00 25.5 8.0 33 0.0 25 16   97.10 26   LegendNANA
16:00 26.0 6.5 29 0.0 23 13   97.16 26   LegendNANA
17:00 26.8 3.7 23 0.0 25 12   97.19 26   LegendNANA
18:00 26.6 3.5 23 0.0 25 12   97.25 25   LegendNANA
19:00 26.1 3.0 23 0.0 26 9   97.33 25   LegendNANA
20:00 24.2 5.1 29 0.0 25 5   97.38     LegendNANA
21:00 22.6 4.2 30 0.0 23 5   97.45     LegendNANA
22:00 20.9 4.7 34 0.0 22 7   97.50     LegendNANA
23:00 20.1 4.1 35 0.0 23 4   97.55     LegendNANA

Notes on Data Quality.

Legend

  • E = Estimated
  • M = Missing
  • NA = Not Available*
  • [empty] = Indicates an unobserved value
Date modified: